This demonstration page uses our WeatherBlox Daily Observations layout. Learn more.

Left ArrowRight Arrow

Hourly Observations for September 16, 2021

Temp ( °F °C ) Dew Point ( °F °C ) Humidity (%) Winds ( mph kmh ) Pressure ( in mb ) Visibility ( mi km ) Precip ( " mm )
12:53 am 00:53 Clear 70 21.1 64 17.8 82 82 S 9 15 29.85 1011 10 16 0.00 0.00
1:53 am 01:53 Clear 70 21.1 65 18.3 84 84 S 12 19 29.85 1011 10 16 0.00 0.00
2:53 am 02:53 Clear 69 20.6 65 18.3 87 87 S 13 20 29.84 1010 10 16 0.00 0.00
3:53 am 03:53 Clear 69 20.6 65 18.3 87 87 S 8 13 29.85 1011 10 16 0.00 0.00
4:53 am 04:53 Clear 68 20 64 17.8 87 87 S 10 17 29.84 1010 10 16 0.00 0.00
5:53 am 05:53 Clear 67 19.4 64 17.8 91 91 S 12 19 29.83 1010 10 16 0.00 0.00
6:53 am 06:53 Clear 66 18.9 64 17.8 93 93 S 10 17 29.84 1011 10 16 0.00 0.00
7:53 am 07:53 Sunny 66 18.9 63 17.2 90 90 S 12 19 29.85 1011 10 16 0.00 0.00
8:53 am 08:53 Sunny 70 21.1 64 17.8 82 82 S 12 19 29.85 1011 10 16 0.00 0.00
9:53 am 09:53 Sunny 76 24.4 64 17.8 67 67 S 13 20 29.83 1010 10 16 0.00 0.00
10:53 am 10:53 Sunny 80 26.7 64 17.8 58 58 S 14 22 29.83 1010 10 16 0.00 0.00
11:53 am 11:53 Sunny 84 28.9 64 17.8 51 51 S 16 26 29.82 1010 10 16 0.00 0.00
12:53 pm 12:53 Sunny 86 30 64 17.8 48 48 S 18 30 29.80 1009 10 16 0.00 0.00
1:53 pm 13:53 Sunny 89 31.7 64 17.8 43 43 S 13 20 29.78 1009 10 16 0.00 0.00
2:53 pm 14:53 Sunny 91 32.8 62 16.7 38 38 S 20 31 29.75 1008 10 16 0.00 0.00
3:53 pm 15:53 Sunny 91 32.8 62 16.7 38 38 S 15 24 29.74 1007 10 16 0.00 0.00
4:53 pm 16:53 Sunny 91 32.8 62 16.7 38 38 S 17 28 29.73 1007 10 16 0.00 0.00
5:53 pm 17:53 Sunny 89 31.7 61 16.1 39 39 S 21 33 29.74 1007 10 16 0.00 0.00
6:53 pm 18:53 Sunny 87 30.6 61 16.1 42 42 S 17 28 29.75 1008 10 16 0.00 0.00
7:53 pm 19:53 Clear 83 28.3 61 16.1 48 48 S 10 17 29.76 1008 10 16 0.00 0.00
8:53 pm 20:53 Clear 80 26.7 62 16.7 54 54 S 13 20 29.78 1008 10 16 0.00 0.00
9:53 pm 21:53 Clear 78 25.6 62 16.7 58 58 S 13 20 29.80 1009 10 16 0.00 0.00
10:53 pm 22:53 Clear 77 25 62 16.7 60 60 S 12 19 29.79 1009 10 16 0.00 0.00
11:53 pm 23:53 Clear 75 23.9 62 16.7 64 64 S 8 13 29.80 1009 10 16 0.00 0.00

Powered by AerisWeather